ONEWEB-0225 (48799 NORAD) Tracking and Keplerian Element Data

This shows tracking and keplerian element data for the satellite.

Feedback or suggestion? Click here.




ElementValue
Catalog48799
NameONEWEB-0225
Epoch Orbit183
Epoch Day170.58334491
Epoch Year2021
RAAN268.8586
Inclination87.4074
Eccentricity0.0006417
Argument of Perigee175.2592
Mean Anonmoly351.0921
Mean Motion15.35434311
Decay Rate-0.00880489
L11 48799U 21045AJ 21170.58334491 -.00880489 00000-0 -27825-1 0 9991
L22 48799 87.4074 268.8586 0006417 175.2592 351.0921 15.35434311 1834

Live tracking and technical data element details for ONEWEB-0225 (NORAD 48799). ONEWEB-0225 can be tracked NOW for your location showing map with azimuth and elevation plus other details from your city location.

Track the satellite on the map from your city or location and see movement details for azimuth, elevation, latitude, longitude, range, height, and movement on the map or in text.







IsCatalogInMostPopularTable: catalog: 48799, numindb: 7
Update: records affected: 1



GetName: 48799 ONEWEB-0225

Hit Count: updated at: Mon, 21 Jun 2021 03:23:54 GMT